Location: Aniagüita
(10.0946°N, 66.9708°W)
Time: 15:43:34
(UTC+00:00)

PAYLOAD B - Pass Details

Date: 30 June 2022
Orbit: 849 x 871 km, 99.1° (Epoch: 07 August)

Event Time Altitude Azimuth Distance (km) Brightness Sun altitude
Rises 23:06:42 0° 166° (SSE) 3,404 7.0 -3.9°
Reaches altitude 10° 23:09:03 10° 165° (SSE) 2,469 6.3 -4.5°
Maximum altitude 23:14:32 86° 78° (ENE) 855 4.3 -5.7°
Drops below altitude 10° 23:20:02 10° 348° (NNW) 2,475 7.2 -6.9°
Sets 23:22:24 0° 348° (NNW) 3,413 7.9 -7.5°
